Agadir Al Massira, Morocco

8:56 PM WEST on September 25, 2017 (GMT +0100)
Agadir Al Massira

Weather History for GMAD - April, 2013

Change the Weather History Date:

Friday, April 26, 2013

  Actual Average Record
Temperature  
Mean Temperature 65 °F -  
Max Temperature 78 °F - - ()
Min Temperature 52 °F - - ()
Growing Degree Days 15 (Base 50)    
Moisture  
Dew Point 53 °F    
Average Humidity 64    
Maximum Humidity 94    
Minimum Humidity 31    
Precipitation  
Precipitation 0.00 in - - ()
Sea Level Pressure  
Sea Level Pressure 29.92 in    
Wind  
Wind Speed 4 mph ()    
Max Wind Speed 15 mph    
Max Gust Speed -    
Visibility 6.1 miles    
Events      
T = Trace of Precipitation, MM = Missing Value Source: Averaged Metar Reports

Daily Weather History Graph

Daily Weather History Graph

Search for Another Location

Airport or City:

Trip Planner

Search our weather history database for the weather conditions in past years. The results will help you decide how hot, cold, wet, or windy it might be!

Date:

Astronomy

Apr. 26, 2013 Rise Set
Actual Time 5:58 AM WET 7:12 PM WET
Civil Twilight 5:33 AM WET 7:37 PM WET
Nautical Twilight 5:03 AM WET 8:07 PM WET
Astronomical Twilight 4:33 AM WET 8:38 PM WET
Moon 8:14 PM WET (4/26) 6:18 AM WET (4/26)
Length of Visible Light 14h 03m
Length of Day
13h 13m
Full, 99% of the Moon is Illuminated
Apr 26
Full
May 2
Last Quarter
May 10
New
May 18
First Quarter
May 25
Full

Hourly Weather History & Observations

Time (WET) Temp. Dew Point Humidity Pressure Visibility Wind Dir Wind Speed Gust Speed Precip Events Conditions
12:00 AM 61 °F 54 °F 71% 29.97 in 6 mi South 4.6 mph - -  
12:00 AM 60.8 °F 53.6 °F 77% 29.95 in - South 4.6 mph - N/A   Clear
1:00 AM 59.0 °F 53.6 °F 82% 29.95 in 6.2 mi Calm Calm - N/A   Unknown
2:00 AM 59.0 °F 53.6 °F 82% 29.92 in 6.2 mi East 6.9 mph - N/A   Unknown
3:00 AM 56 °F 52 °F 81% 29.95 in 6 mi Calm Calm - -  
3:00 AM 57.2 °F 51.8 °F 82% 29.92 in 6.2 mi Calm Calm - N/A   Unknown
4:00 AM 53.6 °F 50.0 °F 88% 29.95 in - Calm Calm - N/A   Unknown
5:00 AM 51.8 °F 50.0 °F 94% 29.92 in - Calm Calm - N/A   Unknown
6:00 AM 53 °F 50 °F 85% 29.96 in - Calm Calm - -  
6:00 AM 53.6 °F 50.0 °F 88% 29.95 in - Calm Calm - N/A   Unknown
7:00 AM 53.6 °F 50.0 °F 88% 29.95 in - Calm Calm - N/A   Clear
8:00 AM 64.4 °F 53.6 °F 68% 29.95 in - Variable 2.3 mph - N/A   Clear
9:00 AM 67 °F 53 °F 52% 29.97 in 6 mi SE 3.5 mph - -  
9:00 AM 68.0 °F 53.6 °F 60% 29.95 in 6.2 mi SE 3.5 mph - N/A   Unknown
10:00 AM 71.6 °F 51.8 °F 50% 29.95 in - Variable 1.2 mph - N/A   Clear
11:00 AM 73.4 °F 50.0 °F 44% 29.95 in - Variable 3.5 mph - N/A   Clear
12:00 PM 75.2 °F 51.8 °F 44% 29.95 in - WSW 8.1 mph - N/A   Clear
1:00 PM 75.2 °F 55.4 °F 50% 29.92 in - WSW 10.4 mph - N/A   Clear
2:00 PM 73.4 °F 51.8 °F 47% 29.92 in - WSW 11.5 mph - N/A   Clear
3:00 PM 76 °F 51 °F 31% 29.88 in 6 mi SW 10.4 mph - -  
3:00 PM 77.0 °F 51.8 °F 41% 29.89 in - SW 10.4 mph - N/A   Clear
4:00 PM 75.2 °F 55.4 °F 50% 29.86 in - South 10.4 mph - N/A   Clear
5:00 PM 77.0 °F 57.2 °F 50% 29.86 in - South 8.1 mph - N/A   Clear
6:00 PM 75 °F 56 °F 41% 29.85 in 6 mi South 12.7 mph - -  
6:00 PM 75.2 °F 55.4 °F 50% 29.83 in - South 12.7 mph - N/A   Clear
7:00 PM 68.0 °F 55.4 °F 64% 29.86 in - South 15.0 mph - N/A   Clear
8:00 PM 66.2 °F 53.6 °F 64% 29.86 in 6.2 mi South 11.5 mph - N/A   Partly Cloudy
9:00 PM 66 °F 53 °F 53% 29.90 in 6 mi South 11.5 mph - -  
9:00 PM 66.2 °F 53.6 °F 64% 29.89 in 6.2 mi South 11.5 mph - N/A   Partly Cloudy
10:00 PM 64.4 °F 51.8 °F 64% 29.92 in - South 5.8 mph - N/A   Unknown
11:00 PM 62.6 °F 51.8 °F 68% 29.92 in 6.2 mi Calm Calm - N/A   Unknown